Wind_Speed
26 26 23 23 23 23 24 25 25 26 28 28 30 30 30 30 31 32 33 34 34 34 34 34 34 34 33 33 33 32 31 31 31 31 31 30 30 30 30 29 29 29 31
23 21 20 21 21 22 24 25 27 28 29 30 31 32 32 32 33 34 34 34 35 35 36 36 36 36 36 35 35 34 34 34 34 33 33 32 31 31 31 31 30 30 32
19 18 17 18 20 22 24 26 28 29 30 31 32 33 33 33 34 34 35 35 36 37 37 36 37 37 37 37 37 37 37 37 37 36 35 33 32 32 32 31 31 31 31
15 15 16 18 20 23 25 27 29 30 32 33 34 34 34 35 35 35 35 36 36 36 36 36 37 37 37 37 38 38 38 38 38 38 37 36 35 33 33 33 32 32 32
12 14 15 17 20 22 24 26 28 30 31 33 33 34 34 35 35 35 36 36 36 35 34 35 35 36 37 37 38 38 38 38 38 39 39 39 38 36 36 35 34 34 33
12 14 16 18 21 22 24 26 28 30 31 32 32 33 34 34 35 35 35 35 36 35 35 35 35 35 36 37 37 38 38 38 38 39 39 39 39 39 38 37 36 35 35
13 16 18 20 22 23 25 26 28 29 30 31 32 32 33 33 33 34 35 35 35 36 37 36 36 36 36 37 37 38 39 39 39 40 40 40 40 39 39 39 38 38 37
14 17 19 21 23 25 26 28 29 30 31 31 32 33 33 33 34 35 35 35 36 36 37 37 38 38 38 38 39 39 39 40 41 41 42 42 42 41 41 40 40 39 39
16 18 21 23 25 26 28 29 30 30 31 32 32 33 34 35 36 36 36 36 36 37 37 38 38 39 39 40 40 40 41 41 41 42 43 44 44 43 43 42 41 41 40
19 21 23 25 27 28 29 30 31 31 32 32 33 34 35 36 36 37 37 37 38 38 38 38 38 39 40 41 41 41 42 42 42 42 43 44 45 45 44 44 43 42 43
21 23 25 27 28 29 31 32 32 33 34 34 35 36 37 37 37 38 38 38 38 38 39 39 40 40 41 42 42 42 43 43 43 44 44 45 46 46 45 45 45 44 43
24 26 28 29 31 32 33 34 34 35 35 36 37 37 38 38 38 39 39 38 38 38 38 39 40 41 42 43 44 44 44 44 44 45 45 46 47 46 46 46 46 45 45
26 28 30 31 33 34 35 35 35 36 36 37 38 38 39 39 39 39 38 38 37 37 38 39 40 40 41 41 42 43 44 44 44 45 45 46 47 47 47 47 47 47 47
27 29 32 33 34 36 36 36 36 37 37 38 39 39 40 40 39 38 38 38 37 37 38 38 38 38 38 39 40 41 42 43 44 44 45 46 47 48 48 48 47 48 49
29 31 33 35 36 37 37 37 37 38 38 39 40 40 40 40 39 39 38 37 37 37 37 37 37 37 37 38 39 40 41 42 43 43 44 45 47 48 49 49 49 49 49
30 33 35 36 37 37 37 37 38 39 39 40 40 41 41 40 39 38 37 37 37 36 36 36 35 35 36 36 37 38 39 40 41 42 43 44 45 47 48 49 50 50 50
32 34 36 37 37 37 37 38 39 40 40 40 41 41 41 40 38 37 37 37 37 36 35 34 34 33 34 34 34 35 36 37 39 40 42 44 45 46 48 48 49 51 51
33 35 36 37 37 38 38 39 40 40 41 40 40 41 40 39 37 36 37 36 35 35 34 33 33 33 32 33 33 33 33 34 36 37 39 41 44 46 47 48 49 51 52
34 35 36 37 38 38 39 40 40 41 41 40 40 41 40 38 37 36 36 36 35 35 33 32 32 31 31 31 31 31 30 31 32 34 36 38 41 44 46 47 48 50 52
34 35 36 37 38 39 39 40 40 40 40 40 40 41 39 38 36 36 36 36 35 34 33 32 31 31 30 30 29 29 28 28 29 30 32 34 37 41 44 45 46 48 50
34 35 36 38 38 39 40 40 40 40 40 40 40 41 39 38 37 36 37 36 35 34 32 31 31 30 29 28 27 25 24 24 25 27 29 31 33 36 39 43 45 46 48
34 35 37 38 39 39 39 40 40 40 41 40 40 41 39 38 37 36 36 36 35 34 32 31 30 30 28 26 25 23 21 20 21 22 24 27 29 32 35 38 41 44 46
34 35 37 38 39 39 40 39 40 41 41 41 41 41 40 38 37 37 36 35 35 34 33 31 29 28 27 26 24 22 19 18 17 18 19 22 24 28 31 34 37 40 43
34 36 37 38 39 39 39 39 40 41 41 41 41 40 39 38 37 37 36 35 35 34 32 31 29 28 27 25 23 20 18 15 13 13 15 17 21 25 27 31 34 36 39
35 36 37 38 38 39 39 40 41 42 41 41 41 40 39 38 37 37 36 35 34 34 33 31 29 28 27 25 23 19 16 14 11 10 11 13 16 20 24 28 31 34 35
35 36 37 38 39 39 39 40 41 42 41 41 40 40 39 38 37 36 35 34 34 34 33 31 29 28 27 25 22 18 15 12 9 8 9 11 13 17 20 24 26 29 33
Wind_Direction
288 288 287 289 288 290 291 293 295 293 295 296 295 294 294 294 291 288 287 285 284 282 280 279 278 276 276 275 274 272 269 268 266 266 264 261 258 258 255 253 251 248 242
289 288 288 289 290 293 294 295 298 300 298 299 298 297 297 296 294 292 291 288 285 282 280 280 278 276 275 275 273 271 269 268 266 265 263 260 257 256 253 251 251 247 242
290 291 296 295 296 297 300 303 303 303 303 301 300 300 299 297 295 294 292 289 286 283 281 280 277 276 275 273 273 270 269 267 266 264 263 260 258 255 250 249 248 247 243
292 294 298 302 302 303 304 305 305 305 304 304 303 302 301 299 297 295 292 290 288 285 282 279 278 276 274 273 272 270 268 266 265 263 261 259 257 254 249 248 246 244 243
299 298 302 306 306 306 306 307 307 306 305 304 303 302 301 299 298 296 294 292 290 288 284 281 278 276 274 272 271 269 268 266 264 262 260 258 255 252 249 247 246 245 242
304 305 307 309 310 310 310 310 310 308 307 305 304 303 301 300 299 297 295 293 291 288 285 282 279 277 275 273 271 269 268 266 263 260 258 256 254 251 248 245 244 243 241
308 310 312 313 314 315 315 314 313 311 310 308 306 304 303 301 299 298 296 293 290 288 286 284 281 278 275 272 270 268 267 265 263 260 258 255 253 250 247 245 243 242 240
317 319 320 320 321 321 321 320 318 316 313 311 309 307 305 303 300 298 296 293 290 288 286 285 283 280 277 273 271 269 267 265 263 260 257 254 252 249 247 244 242 241 239
326 327 327 327 327 326 325 323 321 319 317 314 311 309 307 305 303 300 297 295 291 289 286 284 282 280 278 275 272 269 267 265 263 260 257 253 250 249 247 244 242 239 236
333 333 334 333 331 329 327 325 323 322 320 317 315 313 310 308 305 303 300 296 293 290 287 285 282 280 278 276 273 270 267 265 262 260 257 253 250 248 246 244 242 239 235
337 337 337 335 333 331 329 327 326 325 323 322 320 318 315 312 309 306 302 299 295 291 288 285 283 281 278 276 273 270 268 265 262 259 256 253 249 247 245 243 241 239 235
338 338 337 336 335 333 332 330 328 327 326 324 322 320 318 315 312 309 305 301 297 293 291 288 285 283 280 277 274 271 268 265 263 259 255 252 249 246 244 242 240 238 236
339 339 338 337 336 335 334 332 330 329 328 326 324 323 321 318 315 312 309 306 301 297 294 292 289 286 283 280 276 272 268 266 263 259 254 251 248 245 243 241 239 237 235
340 340 340 339 337 336 335 334 332 331 330 328 327 325 323 321 319 316 312 309 305 302 299 296 293 290 286 283 278 274 269 266 262 258 253 250 246 244 242 240 238 236 234
341 341 341 340 338 337 336 336 335 333 332 330 329 328 326 324 322 319 316 313 309 306 303 299 296 293 290 286 281 275 271 266 262 258 253 249 246 242 241 239 237 235 232
342 342 342 340 339 338 338 337 336 335 334 333 331 330 328 326 325 323 320 317 313 310 307 303 300 297 294 289 284 279 273 266 261 257 252 249 246 241 239 238 236 234 232
342 342 341 341 340 340 340 339 338 337 336 335 334 333 332 330 329 327 324 322 318 315 311 308 304 301 297 293 289 283 275 268 262 257 253 249 245 241 238 236 234 232 231
341 342 341 341 342 342 341 341 340 340 339 338 337 337 335 334 332 331 330 328 325 322 318 313 309 305 301 297 292 286 279 270 263 257 253 248 244 239 237 234 233 231 230
341 341 342 342 343 343 342 342 342 341 341 340 339 339 338 336 335 333 332 331 329 326 323 319 316 311 307 302 297 290 282 274 266 259 253 247 242 238 235 233 231 229 228
341 341 342 343 343 343 343 343 343 342 342 342 341 340 340 338 337 335 335 334 333 330 327 324 321 317 313 308 304 297 288 278 269 261 252 245 241 237 233 230 228 228 227
340 342 342 343 343 344 344 344 343 343 343 343 342 342 341 340 339 338 338 337 336 334 332 330 327 325 321 316 311 305 295 283 272 262 253 245 240 235 232 229 226 226 225
339 341 342 343 343 344 344 344 344 344 344 343 343 343 342 342 342 341 341 340 339 337 335 333 331 330 327 324 319 313 303 290 277 264 253 245 236 232 229 227 224 223 222
339 340 341 342 343 343 344 344 344 344 344 344 344 344 343 343 343 343 343 342 342 340 339 338 336 334 332 329 325 321 313 298 281 264 251 241 233 229 226 223 222 221 220
339 340 341 342 343 343 344 344 344 344 344 344 344 344 344 344 344 345 345 344 344 343 342 342 341 339 337 334 330 326 321 309 292 271 252 239 230 227 224 221 218 218 218
338 339 340 341 342 343 343 343 344 344 345 345 345 345 345 345 345 345 345 345 345 346 346 345 344 343 342 340 336 331 326 314 298 275 251 237 229 222 219 217 217 215 214
336 338 339 340 341 342 342 342 343 344 344 345 345 345 345 345 345 346 346 346 347 348 349 349 348 347 346 345 343 339 334 323 304 278 251 234 225 219 215 214 215 214 214
Height
5849 5847 5846 5845 5843 5842 5841 5839 5837 5835 5833 5831 5829 5828 5826 5824 5823 5821 5819 5818 5816 5815 5815 5814 5814 5814 5814 5814 5814 5814 5815 5815 5816 5817 5818 5819 5821 5822 5824 5825 5828 5830 5832
5844 5843 5841 5840 5839 5837 5835 5834 5832 5830 5827 5825 5823 5821 5818 5816 5815 5813 5810 5807 5806 5806 5806 5805 5805 5804 5804 5804 5804 5805 5806 5807 5807 5809 5810 5811 5814 5815 5816 5818 5820 5822 5824
5840 5839 5837 5836 5835 5833 5831 5829 5826 5824 5821 5819 5816 5813 5810 5808 5806 5804 5802 5800 5798 5797 5796 5795 5795 5794 5794 5794 5794 5795 5796 5797 5798 5799 5801 5802 5804 5806 5808 5810 5812 5814 5817
5837 5837 5835 5834 5832 5830 5827 5824 5821 5818 5814 5811 5808 5805 5803 5800 5798 5796 5793 5791 5789 5787 5786 5785 5785 5784 5784 5784 5784 5785 5785 5787 5788 5789 5790 5792 5794 5797 5799 5801 5803 5806 5808
5836 5835 5834 5831 5829 5826 5823 5819 5816 5812 5808 5805 5801 5798 5795 5792 5789 5786 5784 5781 5779 5778 5777 5776 5775 5774 5774 5773 5773 5774 5775 5776 5777 5778 5779 5781 5784 5786 5789 5792 5794 5797 5800
5834 5833 5831 5828 5825 5822 5818 5814 5810 5807 5803 5799 5795 5791 5788 5784 5781 5778 5775 5772 5770 5768 5766 5765 5765 5764 5763 5763 5763 5763 5763 5764 5766 5767 5769 5771 5773 5776 5779 5782 5785 5788 5791
5833 5830 5827 5824 5821 5817 5813 5809 5805 5801 5796 5792 5788 5784 5780 5777 5773 5770 5766 5763 5761 5758 5756 5754 5753 5753 5752 5752 5752 5752 5752 5753 5755 5756 5758 5760 5762 5765 5768 5771 5775 5778 5782
5830 5827 5823 5820 5816 5812 5807 5803 5799 5794 5790 5785 5781 5777 5772 5769 5765 5761 5757 5754 5751 5749 5746 5743 5742 5741 5740 5740 5740 5740 5740 5741 5742 5744 5746 5748 5751 5753 5757 5760 5764 5768 5773
5827 5823 5819 5815 5811 5806 5802 5797 5793 5788 5783 5778 5773 5769 5764 5760 5755 5751 5747 5744 5741 5738 5735 5733 5730 5728 5727 5727 5727 5727 5727 5728 5729 5731 5733 5735 5738 5741 5745 5749 5753 5758 5762
5823 5819 5815 5810 5806 5801 5796 5791 5786 5781 5776 5771 5766 5761 5755 5750 5746 5741 5737 5733 5729 5726 5723 5721 5718 5716 5715 5713 5713 5713 5714 5715 5716 5717 5720 5722 5725 5728 5732 5737 5741 5746 5752
5818 5814 5810 5805 5800 5795 5790 5785 5779 5774 5768 5763 5757 5751 5746 5740 5735 5730 5726 5721 5717 5714 5711 5708 5705 5703 5701 5700 5699 5699 5699 5700 5701 5703 5706 5708 5711 5715 5719 5724 5729 5734 5740
5814 5809 5805 5800 5795 5789 5783 5778 5772 5766 5760 5755 5748 5742 5736 5731 5725 5720 5714 5709 5705 5701 5698 5694 5691 5689 5687 5685 5684 5684 5684 5684 5686 5688 5690 5693 5697 5701 5706 5711 5717 5722 5728
5809 5805 5800 5794 5789 5783 5777 5771 5765 5759 5753 5747 5740 5734 5728 5721 5715 5709 5703 5697 5693 5688 5685 5681 5678 5675 5672 5670 5669 5668 5668 5668 5670 5671 5674 5678 5682 5687 5692 5697 5703 5709 5715
5805 5800 5795 5789 5783 5777 5771 5765 5758 5752 5746 5739 5732 5726 5719 5712 5705 5699 5692 5687 5681 5677 5672 5668 5664 5661 5658 5655 5654 5652 5652 5652 5653 5655 5658 5662 5666 5672 5677 5683 5689 5695 5702
5801 5796 5790 5784 5778 5771 5765 5759 5752 5745 5739 5732 5725 5717 5710 5703 5696 5689 5682 5676 5671 5665 5660 5656 5652 5648 5644 5641 5639 5637 5637 5636 5637 5639 5642 5646 5651 5656 5662 5668 5675 5681 5688
5796 5791 5785 5779 5773 5766 5760 5753 5746 5739 5732 5724 5717 5709 5701 5694 5686 5679 5673 5666 5660 5654 5649 5644 5640 5636 5632 5628 5625 5623 5621 5621 5622 5624 5626 5631 5635 5641 5646 5653 5660 5667 5674
5792 5786 5780 5774 5768 5761 5754 5747 5740 5733 5725 5717 5710 5702 5694 5686 5678 5671 5664 5657 5650 5644 5639 5633 5628 5624 5620 5616 5612 5609 5607 5606 5607 5609 5611 5615 5620 5625 5631 5638 5645 5653 5660
5788 5782 5776 5770 5763 5756 5749 5742 5734 5727 5719 5711 5703 5695 5686 5678 5671 5663 5656 5649 5642 5635 5629 5624 5618 5614 5609 5604 5600 5596 5594 5593 5593 5594 5597 5600 5605 5611 5617 5623 5630 5638 5646
5784 5778 5772 5765 5758 5751 5744 5736 5729 5721 5713 5705 5697 5689 5680 5672 5665 5657 5650 5642 5634 5628 5621 5615 5609 5604 5599 5593 5589 5585 5582 5581 5580 5581 5583 5586 5591 5596 5603 5610 5617 5625 5633
5780 5774 5767 5761 5754 5747 5739 5732 5724 5716 5708 5700 5692 5684 5675 5667 5659 5652 5644 5636 5628 5621 5614 5607 5601 5595 5589 5584 5579 5574 5571 5570 5569 5569 5571 5574 5578 5583 5589 5596 5604 5612 5620
5776 5770 5763 5756 5749 5742 5735 5727 5719 5712 5704 5695 5687 5679 5670 5662 5654 5646 5638 5630 5622 5615 5607 5601 5594 5588 5582 5576 5570 5565 5562 5560 5559 5559 5561 5564 5567 5572 5577 5584 5592 5599 5607
5772 5766 5759 5752 5745 5738 5730 5723 5715 5708 5699 5691 5683 5674 5666 5658 5650 5641 5633 5625 5617 5610 5602 5595 5588 5581 5575 5569 5564 5559 5555 5552 5551 5550 5552 5554 5558 5562 5567 5574 5581 5589 5596
5767 5761 5755 5748 5741 5734 5727 5719 5712 5704 5695 5687 5679 5670 5662 5653 5645 5637 5629 5621 5613 5605 5597 5590 5583 5576 5570 5564 5558 5553 5549 5546 5544 5544 5545 5547 5550 5554 5560 5566 5572 5579 5587
5763 5757 5751 5744 5737 5730 5723 5715 5708 5700 5692 5683 5675 5667 5658 5650 5641 5633 5625 5617 5609 5601 5594 5586 5579 5572 5566 5560 5554 5549 5544 5541 5539 5539 5540 5541 5544 5548 5553 5559 5565 5572 5580
5759 5753 5747 5740 5733 5726 5719 5712 5704 5696 5688 5680 5671 5663 5655 5646 5638 5630 5622 5614 5606 5598 5590 5583 5575 5569 5562 5556 5550 5545 5541 5538 5536 5535 5536 5537 5540 5544 5548 5553 5559 5566 5573
5754 5749 5742 5736 5729 5722 5715 5708 5700 5692 5684 5676 5668 5660 5652 5643 5635 5627 5619 5611 5603 5596 5588 5580 5573 5566 5560 5553 5547 5542 5538 5535 5534 5533 5533 5535 5537 5540 5544 5549 5554 5560 5567